Terminal Aerodrome Forecast
Issued by NWS

Home | Current Version | Previous Version | Text Only | Print | Product List | Glossary On
Versions: 1 2 3 4 5 6 7 8 9 10 11 12 13 14 15 16 17 18 19 20
000
FTUS41 KBTV 281634 AAA
TAFSLK
TAF AMD
KSLK 281634Z 2817/2912 28008KT 5SM -SHSN BKN020 OVC035
     FM282200 28008KT P6SM BKN035
     FM290100 28004KT P6SM SCT035
     FM290600 22005KT P6SM BKN080=

USA.gov is the U.S. government's official web portal to all federal, state and local government web resources and services.